Time,TemperatureF,DewpointF,PressureIn,WindDirection,WindDirectionDegrees,WindSpeedMPH,WindSpeedGustMPH,Humidity,HourlyPrecipIn,Conditions,Clouds,dailyrainin,SoftwareType,DateUTC
2013-03-06 00:04:00,47.3,34.5,28.97,West,259,3.1,4.9,61,0.00,,---,0.00,VWS V14.00,2013-03-06 08:04:00,
2013-03-06 00:11:00,47.3,34.5,29.00,South,178,2.2,6.3,61,0.00,,---,0.00,VWS V14.00,2013-03-06 08:11:00,
2013-03-06 00:16:00,47.3,34.1,29.00,East,87,3.1,4.0,60,0.00,,---,0.00,VWS V14.00,2013-03-06 08:16:00,
2013-03-06 00:22:00,47.3,34.5,29.00,SSE,165,0.0,4.0,61,0.00,,---,0.00,VWS V14.00,2013-03-06 08:22:00,
2013-03-06 00:27:00,47.1,34.4,29.00,SSW,195,0.0,4.9,61,0.00,,---,0.00,VWS V14.00,2013-03-06 08:27:00,
2013-03-06 00:32:00,47.1,35.2,29.00,SSE,149,2.2,4.0,63,0.00,,---,0.00,VWS V14.00,2013-03-06 08:32:00,
2013-03-06 00:38:00,46.9,35.8,29.00,WSW,255,0.0,4.9,65,0.00,,---,0.00,VWS V14.00,2013-03-06 08:38:00,
2013-03-06 00:44:00,46.9,36.2,29.00,SW,214,0.0,4.0,66,0.00,,---,0.00,VWS V14.00,2013-03-06 08:44:00,
2013-03-06 00:50:00,46.8,36.4,29.00,ESE,123,0.0,3.6,67,0.00,,---,0.00,VWS V14.00,2013-03-06 08:50:00,
2013-03-06 00:56:00,46.8,36.8,29.00,ESE,119,3.1,4.0,68,0.00,,---,0.00,VWS V14.00,2013-03-06 08:56:00,
2013-03-06 01:02:00,46.8,36.8,29.00,South,188,0.0,2.7,68,0.00,,---,0.00,VWS V14.00,2013-03-06 09:02:00,
2013-03-06 01:25:00,46.9,37.7,29.00,West,275,0.0,6.3,70,0.00,,---,0.00,VWS V14.00,2013-03-06 09:25:00,
2013-03-06 01:31:00,46.9,37.7,29.00,SE,146,0.0,0.0,70,0.00,,---,0.00,VWS V14.00,2013-03-06 09:31:00,
2013-03-06 01:36:00,47.1,38.2,29.00,SE,138,4.0,4.0,71,0.00,,---,0.00,VWS V14.00,2013-03-06 09:36:00,
2013-03-06 01:41:00,47.1,38.6,29.00,West,259,3.6,3.6,72,0.00,,---,0.00,VWS V14.00,2013-03-06 09:41:00,
2013-03-06 01:46:00,47.1,38.6,29.00,South,178,2.7,4.0,72,0.00,,---,0.00,VWS V14.00,2013-03-06 09:46:00,
2013-03-06 01:51:00,47.1,38.9,29.00,SW,224,2.2,3.1,73,0.00,,---,0.00,VWS V14.00,2013-03-06 09:51:00,
2013-03-06 01:57:00,47.1,39.3,28.97,SSE,168,2.7,2.7,74,0.00,,---,0.00,VWS V14.00,2013-03-06 09:57:00,
2013-03-06 02:02:00,47.1,39.6,28.97,WSW,246,3.6,3.6,75,0.00,,---,0.00,VWS V14.00,2013-03-06 10:02:00,
2013-03-06 02:07:00,47.1,40.0,28.97,SW,227,0.0,3.1,76,0.00,,---,0.00,VWS V14.00,2013-03-06 10:07:00,
2013-03-06 02:13:00,47.1,40.3,29.00,SSE,149,0.0,2.7,77,0.00,,---,0.04,VWS V14.00,2013-03-06 10:13:00,
2013-03-06 02:19:00,47.3,41.1,29.00,West,272,0.0,0.0,79,0.00,,---,0.04,VWS V14.00,2013-03-06 10:19:00,
2013-03-06 02:25:00,47.3,41.1,29.00,West,279,0.0,2.2,79,0.00,,---,0.04,VWS V14.00,2013-03-06 10:25:00,
2013-03-06 02:58:00,47.1,41.9,29.03,SSE,153,0.0,3.6,82,0.00,,---,0.04,VWS V14.00,2013-03-06 10:58:00,
2013-03-06 03:04:00,46.9,42.0,29.03,SE,144,0.0,0.0,83,0.00,,---,0.04,VWS V14.00,2013-03-06 11:04:00,
2013-03-06 03:09:00,46.9,42.0,29.03,SSW,192,0.0,0.0,83,0.00,,---,0.04,VWS V14.00,2013-03-06 11:09:00,
2013-03-06 03:14:00,46.8,41.9,29.03,SW,224,0.0,0.0,83,0.04,,---,0.12,VWS V14.00,2013-03-06 11:14:00,
2013-03-06 03:19:00,46.8,41.9,29.03,ESE,112,0.0,0.0,83,0.04,,---,0.12,VWS V14.00,2013-03-06 11:19:00,
2013-03-06 03:24:00,46.8,41.9,29.03,East,100,0.0,0.0,83,0.04,,---,0.12,VWS V14.00,2013-03-06 11:24:00,
2013-03-06 03:30:00,46.9,42.4,29.03,East,99,0.0,0.0,84,0.04,,---,0.12,VWS V14.00,2013-03-06 11:30:00,
2013-03-06 03:35:00,46.9,42.4,29.03,West,259,0.0,0.0,84,0.04,,---,0.12,VWS V14.00,2013-03-06 11:35:00,
2013-03-06 03:41:00,46.9,42.4,29.03,West,271,0.0,0.0,84,0.04,,---,0.12,VWS V14.00,2013-03-06 11:41:00,
2013-03-06 03:47:00,47.1,42.8,29.03,WSW,238,0.0,0.0,85,0.04,,---,0.12,VWS V14.00,2013-03-06 11:47:00,
2013-03-06 03:52:00,47.1,42.8,29.03,West,260,0.0,0.0,85,0.04,,---,0.12,VWS V14.00,2013-03-06 11:52:00,
2013-03-06 03:58:00,47.1,42.8,29.03,West,278,0.0,0.0,85,0.04,,---,0.12,VWS V14.00,2013-03-06 11:58:00,
2013-03-06 04:03:00,47.1,42.8,29.03,SSE,154,0.0,0.0,85,0.04,,---,0.12,VWS V14.00,2013-03-06 12:03:00,
2013-03-06 04:08:00,47.3,43.3,29.03,WSW,247,0.0,0.0,86,0.04,,---,0.12,VWS V14.00,2013-03-06 12:08:00,
2013-03-06 04:13:00,47.3,43.3,29.03,ESE,113,0.0,0.0,86,0.04,,---,0.12,VWS V14.00,2013-03-06 12:13:00,
2013-03-06 04:18:00,47.3,43.3,29.03,West,261,0.0,0.0,86,0.04,,---,0.12,VWS V14.00,2013-03-06 12:18:00,
2013-03-06 04:24:00,47.5,43.5,29.03,WSW,252,0.0,0.0,86,0.04,,---,0.12,VWS V14.00,2013-03-06 12:24:00,
2013-03-06 04:30:00,47.5,43.5,29.03,SE,130,0.0,0.0,86,0.04,,---,0.12,VWS V14.00,2013-03-06 12:30:00,
2013-03-06 04:35:00,47.5,43.5,29.03,SW,223,0.0,0.0,86,0.04,,---,0.12,VWS V14.00,2013-03-06 12:35:00,
2013-03-06 04:41:00,47.5,43.5,29.03,WSW,251,0.0,0.0,86,0.04,,---,0.12,VWS V14.00,2013-03-06 12:41:00,
2013-03-06 04:47:00,47.5,43.8,29.03,SE,143,0.0,0.0,87,0.04,,---,0.12,VWS V14.00,2013-03-06 12:47:00,
2013-03-06 04:53:00,47.5,43.8,29.03,South,189,0.0,0.0,87,0.04,,---,0.12,VWS V14.00,2013-03-06 12:53:00,
2013-03-06 04:59:00,47.5,43.8,29.06,South,179,0.0,0.0,87,0.04,,---,0.12,VWS V14.00,2013-03-06 12:59:00,
2013-03-06 05:05:00,47.7,44.0,29.06,SSW,204,0.0,0.0,87,0.04,,---,0.12,VWS V14.00,2013-03-06 13:05:00,
2013-03-06 05:10:00,47.7,44.0,29.06,West,259,0.0,0.0,87,0.04,,---,0.12,VWS V14.00,2013-03-06 13:10:00,
2013-03-06 05:15:00,47.7,44.0,29.06,WSW,249,0.0,0.0,87,0.04,,---,0.12,VWS V14.00,2013-03-06 13:15:00,
2013-03-06 05:20:00,47.5,43.8,29.06,SE,142,0.0,0.0,87,0.00,,---,0.12,VWS V14.00,2013-03-06 13:20:00,
2013-03-06 05:25:00,47.1,43.5,29.06,WNW,300,0.0,0.0,87,0.00,,---,0.12,VWS V14.00,2013-03-06 13:25:00,
2013-03-06 05:30:00,46.9,43.3,29.06,ENE,69,0.0,0.0,87,0.00,,---,0.12,VWS V14.00,2013-03-06 13:30:00,
2013-03-06 05:35:00,46.8,43.1,29.06,SW,223,0.0,0.0,87,0.00,,---,0.12,VWS V14.00,2013-03-06 13:35:00,
2013-03-06 05:41:00,46.6,42.9,29.09,SSW,209,0.0,0.0,87,0.00,,---,0.12,VWS V14.00,2013-03-06 13:41:00,
2013-03-06 05:47:00,46.4,42.8,29.09,West,270,0.0,0.0,87,0.00,,---,0.12,VWS V14.00,2013-03-06 13:47:00,
2013-03-06 05:52:00,46.4,42.8,29.09,SW,221,0.0,0.0,87,0.00,,---,0.12,VWS V14.00,2013-03-06 13:52:00,
2013-03-06 05:58:00,46.4,42.8,29.09,West,268,0.0,0.0,87,0.00,,---,0.12,VWS V14.00,2013-03-06 13:58:00,
2013-03-06 06:03:00,46.4,42.8,29.09,WNW,301,0.0,0.0,87,0.00,,---,0.12,VWS V14.00,2013-03-06 14:03:00,
2013-03-06 06:09:00,46.2,42.6,29.09,WNW,295,0.0,0.0,87,0.00,,---,0.12,VWS V14.00,2013-03-06 14:09:00,
2013-03-06 06:16:00,46.4,42.8,29.09,WNW,282,0.0,0.0,87,0.00,,---,0.12,VWS V14.00,2013-03-06 14:16:00,
2013-03-06 06:21:00,46.4,42.8,29.09,West,281,0.0,0.0,87,0.00,,---,0.12,VWS V14.00,2013-03-06 14:21:00,
2013-03-06 06:33:00,46.2,42.6,29.09,South,175,0.0,2.2,87,0.00,,---,0.12,VWS V14.00,2013-03-06 14:33:00,
2013-03-06 06:38:00,46.0,42.4,29.09,SW,218,0.0,0.0,87,0.00,,---,0.12,VWS V14.00,2013-03-06 14:38:00,
2013-03-06 06:44:00,46.0,42.4,29.09,South,179,0.0,0.0,87,0.00,,---,0.12,VWS V14.00,2013-03-06 14:44:00,
2013-03-06 06:49:00,45.9,42.2,29.09,West,269,0.0,0.0,87,0.00,,---,0.12,VWS V14.00,2013-03-06 14:49:00,
2013-03-06 06:55:00,46.0,42.4,29.12,SE,145,0.0,0.0,87,0.00,,---,0.12,VWS V14.00,2013-03-06 14:55:00,
2013-03-06 07:01:00,46.0,42.4,29.12,WSW,254,0.0,0.0,87,0.00,,---,0.12,VWS V14.00,2013-03-06 15:01:00,
2013-03-06 07:06:00,46.0,42.4,29.12,WSW,256,0.0,0.0,87,0.00,,---,0.12,VWS V14.00,2013-03-06 15:06:00,
2013-03-06 07:12:00,46.2,42.6,29.12,WNW,295,0.0,0.0,87,0.00,,---,0.12,VWS V14.00,2013-03-06 15:12:00,
2013-03-06 07:18:00,46.4,42.8,29.12,SW,227,0.0,0.0,87,0.00,,---,0.12,VWS V14.00,2013-03-06 15:18:00,
2013-03-06 07:23:00,46.6,42.9,29.12,WSW,246,0.0,0.0,87,0.00,,---,0.12,VWS V14.00,2013-03-06 15:23:00,
2013-03-06 07:29:00,46.8,43.1,29.12,WSW,258,0.0,0.0,87,0.00,,---,0.12,VWS V14.00,2013-03-06 15:29:00,
2013-03-06 07:34:00,46.9,43.3,29.12,West,261,0.0,0.0,87,0.00,,---,0.12,VWS V14.00,2013-03-06 15:34:00,
2013-03-06 07:39:00,46.9,43.3,29.12,West,261,0.0,0.0,87,0.00,,---,0.12,VWS V14.00,2013-03-06 15:39:00,
2013-03-06 07:46:00,47.1,43.5,29.12,West,261,0.0,0.0,87,0.00,,---,0.12,VWS V14.00,2013-03-06 15:46:00,
2013-03-06 07:51:00,47.1,43.5,29.12,ESE,114,0.0,0.0,87,0.00,,---,0.12,VWS V14.00,2013-03-06 15:51:00,
2013-03-06 07:57:00,47.3,43.6,29.15,WNW,288,0.0,0.0,87,0.00,,---,0.12,VWS V14.00,2013-03-06 15:57:00,
2013-03-06 08:02:00,47.3,43.6,29.15,West,279,0.0,0.0,87,0.00,,---,0.12,VWS V14.00,2013-03-06 16:02:00,
2013-03-06 08:09:00,47.3,43.6,29.15,South,177,0.0,0.0,87,0.00,,---,0.12,VWS V14.00,2013-03-06 16:09:00,
2013-03-06 08:14:00,47.5,43.8,29.15,SW,217,0.0,0.0,87,0.00,,---,0.12,VWS V14.00,2013-03-06 16:14:00,
2013-03-06 08:19:00,47.7,44.0,29.15,West,272,0.0,0.0,87,0.00,,---,0.12,VWS V14.00,2013-03-06 16:19:00,
2013-03-06 08:25:00,48.0,44.3,29.15,West,272,0.0,0.0,87,0.00,,---,0.12,VWS V14.00,2013-03-06 16:25:00,
2013-03-06 08:31:00,48.2,44.5,29.15,SW,229,0.0,0.0,87,0.00,,---,0.12,VWS V14.00,2013-03-06 16:31:00,
2013-03-06 08:36:00,48.2,44.5,29.15,SW,229,0.0,0.0,87,0.00,,---,0.12,VWS V14.00,2013-03-06 16:36:00,
2013-03-06 08:42:00,48.4,44.7,29.15,WNW,293,0.0,0.0,87,0.00,,---,0.12,VWS V14.00,2013-03-06 16:42:00,
2013-03-06 08:47:00,48.7,44.8,29.15,SW,236,0.0,0.0,86,0.00,,---,0.12,VWS V14.00,2013-03-06 16:47:00,
2013-03-06 08:53:00,48.9,44.9,29.15,West,270,0.0,0.0,86,0.00,,---,0.12,VWS V14.00,2013-03-06 16:53:00,
2013-03-06 08:58:00,49.5,45.5,29.15,WSW,243,0.0,0.0,86,0.00,,---,0.12,VWS V14.00,2013-03-06 16:58:00,
2013-03-06 09:03:00,50.0,45.4,29.15,South,181,0.0,0.0,84,0.00,,---,0.12,VWS V14.00,2013-03-06 17:03:00,
2013-03-06 09:09:00,50.2,45.2,29.15,ESE,119,0.0,0.0,83,0.00,,---,0.12,VWS V14.00,2013-03-06 17:09:00,
2013-03-06 09:14:00,50.2,44.9,29.15,SW,227,0.0,0.0,82,0.00,,---,0.12,VWS V14.00,2013-03-06 17:14:00,
2013-03-06 09:20:00,50.4,44.8,29.15,South,176,0.0,0.0,81,0.00,,---,0.12,VWS V14.00,2013-03-06 17:20:00,
2013-03-06 09:25:00,50.5,44.3,29.18,WSW,253,0.0,0.0,79,0.00,,---,0.12,VWS V14.00,2013-03-06 17:25:00,
2013-03-06 09:30:00,50.5,43.6,29.18,West,264,0.0,0.0,77,0.00,,---,0.12,VWS V14.00,2013-03-06 17:30:00,
2013-03-06 09:35:00,50.5,43.3,29.18,West,263,0.0,0.0,76,0.00,,---,0.12,VWS V14.00,2013-03-06 17:35:00,
2013-03-06 09:40:00,50.5,42.9,29.18,NNW,340,0.0,0.0,75,0.00,,---,0.12,VWS V14.00,2013-03-06 17:40:00,
2013-03-06 09:46:00,50.5,42.9,29.18,WSW,246,0.0,0.0,75,0.00,,---,0.12,VWS V14.00,2013-03-06 17:46:00,
2013-03-06 09:51:00,50.4,42.4,29.18,WSW,255,0.0,0.0,74,0.00,,---,0.12,VWS V14.00,2013-03-06 17:51:00,
2013-03-06 09:56:00,50.4,42.0,29.18,WSW,238,0.0,0.0,73,0.00,,---,0.12,VWS V14.00,2013-03-06 17:56:00,
2013-03-06 10:01:00,50.4,41.7,29.18,WNW,285,0.0,0.0,72,0.00,,---,0.12,VWS V14.00,2013-03-06 18:01:00,
2013-03-06 10:06:00,50.7,42.0,29.18,West,276,0.0,0.0,72,0.00,,---,0.12,VWS V14.00,2013-03-06 18:06:00,
2013-03-06 10:11:00,50.9,41.5,29.18,West,266,0.0,0.0,70,0.00,,---,0.12,VWS V14.00,2013-03-06 18:11:00,
2013-03-06 10:16:00,50.9,40.0,29.18,SW,215,0.0,0.0,66,0.00,,---,0.12,VWS V14.00,2013-03-06 18:16:00,
2013-03-06 10:21:00,51.3,39.9,29.18,WSW,244,0.0,0.0,65,0.00,,---,0.12,VWS V14.00,2013-03-06 18:21:00,
2013-03-06 10:26:00,51.4,39.3,29.18,SSW,192,0.0,0.0,63,0.00,,---,0.12,VWS V14.00,2013-03-06 18:26:00,
2013-03-06 10:31:00,51.3,37.4,29.18,South,169,0.0,0.0,59,0.00,,---,0.12,VWS V14.00,2013-03-06 18:31:00,
2013-03-06 10:37:00,51.3,36.6,29.18,North,353,0.0,0.0,57,0.00,,---,0.12,VWS V14.00,2013-03-06 18:37:00,
2013-03-06 10:42:00,51.3,36.6,29.18,WSW,240,0.0,0.0,57,0.00,,---,0.12,VWS V14.00,2013-03-06 18:42:00,
2013-03-06 10:48:00,51.4,34.9,29.18,WSW,238,0.0,2.2,53,0.00,,---,0.12,VWS V14.00,2013-03-06 18:48:00,
2013-03-06 10:53:00,51.6,35.1,29.18,WSW,240,2.7,2.7,53,0.00,,---,0.12,VWS V14.00,2013-03-06 18:53:00,
2013-03-06 10:59:00,52.0,34.4,29.18,WSW,258,0.0,0.0,51,0.00,,---,0.12,VWS V14.00,2013-03-06 18:59:00,
2013-03-06 11:05:00,52.3,33.8,29.18,WSW,258,0.0,0.0,49,0.00,,---,0.12,VWS V14.00,2013-03-06 19:05:00,
2013-03-06 11:11:00,52.7,34.1,29.18,SW,224,0.0,0.0,49,0.00,,---,0.12,VWS V14.00,2013-03-06 19:11:00,
2013-03-06 11:16:00,53.1,33.9,29.18,WNW,296,0.0,0.0,48,0.00,,---,0.12,VWS V14.00,2013-03-06 19:16:00,
2013-03-06 11:22:00,53.1,33.9,29.18,SW,222,0.0,0.0,48,0.00,,---,0.12,VWS V14.00,2013-03-06 19:22:00,
2013-03-06 11:27:00,53.1,33.4,29.21,SSW,199,0.0,0.0,47,0.00,,---,0.12,VWS V14.00,2013-03-06 19:27:00,
2013-03-06 11:34:00,53.1,32.8,29.21,South,188,0.0,0.0,46,0.00,,---,0.12,VWS V14.00,2013-03-06 19:34:00,
2013-03-06 11:39:00,53.2,33.0,29.21,SE,131,2.2,2.2,46,0.00,,---,0.12,VWS V14.00,2013-03-06 19:39:00,
2013-03-06 11:44:00,53.4,33.2,29.21,South,184,0.0,0.0,46,0.00,,---,0.12,VWS V14.00,2013-03-06 19:44:00,
2013-03-06 11:50:00,53.8,33.0,29.21,NW,309,0.0,0.0,45,0.00,,---,0.12,VWS V14.00,2013-03-06 19:50:00,
2013-03-06 11:55:00,54.1,33.3,29.21,SW,225,0.0,0.0,45,0.00,,---,0.12,VWS V14.00,2013-03-06 19:55:00,
2013-03-06 12:01:00,54.5,31.9,29.21,WNW,285,0.0,0.0,42,0.00,,---,0.12,VWS V14.00,2013-03-06 20:01:00,
2013-03-06 12:07:00,54.9,31.0,29.21,WSW,258,0.0,0.0,40,0.00,,---,0.12,VWS V14.00,2013-03-06 20:07:00,
2013-03-06 12:13:00,54.9,31.0,29.18,SSE,154,0.0,0.0,40,0.00,,---,0.12,VWS V14.00,2013-03-06 20:13:00,
2013-03-06 12:19:00,54.9,31.0,29.18,West,276,0.0,0.0,40,0.00,,---,0.12,VWS V14.00,2013-03-06 20:19:00,
2013-03-06 12:35:00,54.7,29.6,29.18,NNW,332,0.0,0.0,38,0.00,,---,0.12,VWS V14.00,2013-03-06 20:35:00,
2013-03-06 12:41:00,54.9,29.8,29.18,West,264,0.0,0.0,38,0.00,,---,0.12,VWS V14.00,2013-03-06 20:41:00,
2013-03-06 12:46:00,54.9,29.8,29.18,NW,309,0.0,0.0,38,0.00,,---,0.12,VWS V14.00,2013-03-06 20:46:00,
2013-03-06 12:51:00,54.7,29.6,29.18,WSW,256,0.0,0.0,38,0.00,,---,0.12,VWS V14.00,2013-03-06 20:51:00,
2013-03-06 12:57:00,54.9,29.8,29.18,SE,128,0.0,0.0,38,0.00,,---,0.12,VWS V14.00,2013-03-06 20:57:00,
2013-03-06 13:02:00,55.0,29.9,29.18,WNW,303,0.0,0.0,38,0.00,,---,0.12,VWS V14.00,2013-03-06 21:02:00,
2013-03-06 13:07:00,55.2,30.1,29.18,WNW,300,0.0,0.0,38,0.00,,---,0.12,VWS V14.00,2013-03-06 21:07:00,
2013-03-06 13:13:00,55.4,29.6,29.18,NW,308,0.0,0.0,37,0.00,,---,0.12,VWS V14.00,2013-03-06 21:13:00,
2013-03-06 13:19:00,55.6,30.4,29.18,West,276,0.0,0.0,38,0.00,,---,0.12,VWS V14.00,2013-03-06 21:19:00,
2013-03-06 13:24:00,55.8,29.9,29.18,West,275,0.0,0.0,37,0.00,,---,0.12,VWS V14.00,2013-03-06 21:24:00,
2013-03-06 13:30:00,55.9,30.1,29.18,WSW,255,0.0,0.0,37,0.00,,---,0.12,VWS V14.00,2013-03-06 21:30:00,
2013-03-06 13:35:00,56.1,30.2,29.18,SW,221,0.0,0.0,37,0.00,,---,0.12,VWS V14.00,2013-03-06 21:35:00,
2013-03-06 13:41:00,56.1,29.5,29.18,SE,139,0.0,0.0,36,0.00,,---,0.12,VWS V14.00,2013-03-06 21:41:00,
2013-03-06 13:46:00,56.1,30.2,29.18,South,180,0.0,0.0,37,0.00,,---,0.12,VWS V14.00,2013-03-06 21:46:00,
2013-03-06 13:51:00,56.1,30.2,29.18,South,189,0.0,0.0,37,0.00,,---,0.12,VWS V14.00,2013-03-06 21:51:00,
2013-03-06 13:56:00,56.3,29.7,29.18,West,276,0.0,0.0,36,0.00,,---,0.12,VWS V14.00,2013-03-06 21:56:00,
2013-03-06 14:02:00,56.1,29.5,29.18,West,280,0.0,0.0,36,0.00,,---,0.12,VWS V14.00,2013-03-06 22:02:00,
2013-03-06 14:07:00,56.1,29.5,29.18,West,276,0.0,0.0,36,0.00,,---,0.12,VWS V14.00,2013-03-06 22:07:00,
2013-03-06 14:12:00,55.8,29.2,29.18,West,270,0.0,0.0,36,0.00,,---,0.12,VWS V14.00,2013-03-06 22:12:00,
2013-03-06 14:18:00,55.2,28.8,29.18,WSW,249,0.0,0.0,36,0.00,,---,0.12,VWS V14.00,2013-03-06 22:18:00,
2013-03-06 14:23:00,55.0,28.6,29.18,WSW,238,0.0,0.0,36,0.00,,---,0.12,VWS V14.00,2013-03-06 22:23:00,
2013-03-06 14:28:00,55.2,28.8,29.18,WSW,238,0.0,0.0,36,0.00,,---,0.12,VWS V14.00,2013-03-06 22:28:00,
2013-03-06 14:33:00,55.2,28.8,29.18,SW,214,0.0,0.0,36,0.00,,---,0.12,VWS V14.00,2013-03-06 22:33:00,
2013-03-06 14:39:00,55.4,28.9,29.18,SSW,197,0.0,0.0,36,0.00,,---,0.12,VWS V14.00,2013-03-06 22:39:00,
2013-03-06 14:45:00,55.2,28.8,29.18,WSW,251,0.0,0.0,36,0.00,,---,0.12,VWS V14.00,2013-03-06 22:45:00,
2013-03-06 14:50:00,55.2,28.8,29.18,WSW,256,0.0,0.0,36,0.00,,---,0.12,VWS V14.00,2013-03-06 22:50:00,
2013-03-06 14:55:00,55.4,28.9,29.18,WSW,249,0.0,0.0,36,0.00,,---,0.12,VWS V14.00,2013-03-06 22:55:00,
2013-03-06 15:00:00,55.4,28.9,29.18,WSW,250,0.0,0.0,36,0.00,,---,0.12,VWS V14.00,2013-03-06 23:00:00,
2013-03-06 15:06:00,55.4,28.9,29.18,WNW,285,0.0,0.0,36,0.00,,---,0.12,VWS V14.00,2013-03-06 23:06:00,
2013-03-06 15:11:00,55.4,28.2,29.18,WNW,285,0.0,0.0,35,0.00,,---,0.12,VWS V14.00,2013-03-06 23:11:00,
2013-03-06 15:17:00,55.0,28.6,29.18,WSW,252,0.0,0.0,36,0.00,,---,0.12,VWS V14.00,2013-03-06 23:17:00,
2013-03-06 15:22:00,54.9,28.4,29.18,WSW,245,0.0,0.0,36,0.00,,---,0.12,VWS V14.00,2013-03-06 23:22:00,
2013-03-06 15:27:00,54.7,27.6,29.18,West,267,0.0,2.7,35,0.00,,---,0.12,VWS V14.00,2013-03-06 23:27:00,
2013-03-06 15:33:00,54.7,28.3,29.18,SSW,200,0.0,0.0,36,0.00,,---,0.12,VWS V14.00,2013-03-06 23:33:00,
2013-03-06 15:38:00,54.7,28.3,29.18,NW,315,0.0,0.0,36,0.00,,---,0.12,VWS V14.00,2013-03-06 23:38:00,
2013-03-06 15:43:00,54.7,28.3,29.18,WSW,248,0.0,2.2,36,0.00,,---,0.12,VWS V14.00,2013-03-06 23:43:00,
2013-03-06 15:50:00,54.5,28.1,29.18,West,261,3.1,3.1,36,0.00,,---,0.12,VWS V14.00,2013-03-06 23:50:00,
2013-03-06 15:55:00,54.1,27.8,29.18,SW,234,0.0,0.0,36,0.00,,---,0.12,VWS V14.00,2013-03-06 23:55:00,
2013-03-06 16:15:00,54.0,27.6,29.18,West,274,0.0,0.0,36,0.00,,---,0.12,VWS V14.00,2013-03-07 00:15:00,
2013-03-06 16:21:00,53.8,27.5,29.18,West,265,0.0,0.0,36,0.00,,---,0.12,VWS V14.00,2013-03-07 00:21:00,
2013-03-06 16:26:00,53.6,27.3,29.18,NNW,345,0.0,0.0,36,0.00,,---,0.12,VWS V14.00,2013-03-07 00:26:00,
2013-03-06 16:31:00,53.4,27.8,29.18,WNW,293,0.0,0.0,37,0.00,,---,0.12,VWS V14.00,2013-03-07 00:31:00,
2013-03-06 16:36:00,53.2,27.7,29.18,West,263,0.0,2.2,37,0.00,,---,0.12,VWS V14.00,2013-03-07 00:36:00,
2013-03-06 16:41:00,53.1,27.5,29.18,NW,311,0.0,0.0,37,0.00,,---,0.12,VWS V14.00,2013-03-07 00:41:00,
2013-03-06 16:46:00,52.9,27.3,29.18,WSW,241,0.0,0.0,37,0.00,,---,0.12,VWS V14.00,2013-03-07 00:46:00,
2013-03-06 16:52:00,52.7,27.2,29.18,WNW,289,0.0,0.0,37,0.00,,---,0.12,VWS V14.00,2013-03-07 00:52:00,
2013-03-06 16:57:00,52.3,27.5,29.15,West,265,0.0,0.0,38,0.00,,---,0.12,VWS V14.00,2013-03-07 00:57:00,
2013-03-06 17:03:00,52.2,27.3,29.15,West,265,0.0,0.0,38,0.00,,---,0.12,VWS V14.00,2013-03-07 01:03:00,
2013-03-06 17:08:00,52.0,27.2,29.15,WSW,258,0.0,0.0,38,0.00,,---,0.12,VWS V14.00,2013-03-07 01:08:00,
2013-03-06 17:14:00,51.6,26.9,29.15,SW,225,0.0,0.0,38,0.00,,---,0.12,VWS V14.00,2013-03-07 01:14:00,
2013-03-06 17:20:00,51.3,26.5,29.15,WSW,243,0.0,0.0,38,0.00,,---,0.12,VWS V14.00,2013-03-07 01:20:00,
2013-03-06 17:25:00,51.1,27.0,29.15,WNW,285,0.0,0.0,39,0.00,,---,0.12,VWS V14.00,2013-03-07 01:25:00,
2013-03-06 17:31:00,50.7,26.7,29.15,West,279,0.0,0.0,39,0.00,,---,0.12,VWS V14.00,2013-03-07 01:31:00,
2013-03-06 17:38:00,50.5,26.5,29.15,WSW,253,0.0,0.0,39,0.00,,---,0.12,VWS V14.00,2013-03-07 01:38:00,
2013-03-06 17:43:00,50.2,26.2,29.15,WNW,290,0.0,0.0,39,0.00,,---,0.12,VWS V14.00,2013-03-07 01:43:00,
2013-03-06 17:48:00,50.0,26.0,29.15,WNW,290,0.0,0.0,39,0.00,,---,0.12,VWS V14.00,2013-03-07 01:48:00,
2013-03-06 17:53:00,49.8,26.5,29.15,WSW,248,0.0,0.0,40,0.00,,---,0.12,VWS V14.00,2013-03-07 01:53:00,
2013-03-06 17:59:00,49.5,26.2,29.15,SW,236,0.0,0.0,40,0.00,,---,0.12,VWS V14.00,2013-03-07 01:59:00,
2013-03-06 18:04:00,49.3,26.0,29.15,WSW,247,0.0,0.0,40,0.00,,---,0.12,VWS V14.00,2013-03-07 02:04:00,
2013-03-06 18:09:00,49.1,26.4,29.15,West,279,0.0,0.0,41,0.00,,---,0.12,VWS V14.00,2013-03-07 02:09:00,
2013-03-06 18:15:00,48.7,26.1,29.15,West,279,0.0,0.0,41,0.00,,---,0.12,VWS V14.00,2013-03-07 02:15:00,
2013-03-06 18:20:00,48.6,26.5,29.15,West,279,0.0,0.0,42,0.00,,---,0.12,VWS V14.00,2013-03-07 02:20:00,
2013-03-06 18:25:00,48.2,26.2,29.15,West,279,0.0,0.0,42,0.00,,---,0.12,VWS V14.00,2013-03-07 02:25:00,
2013-03-06 18:31:00,48.0,26.6,29.15,West,279,0.0,0.0,43,0.00,,---,0.12,VWS V14.00,2013-03-07 02:31:00,
2013-03-06 18:36:00,47.8,26.4,29.15,West,279,0.0,0.0,43,0.00,,---,0.12,VWS V14.00,2013-03-07 02:36:00,
2013-03-06 18:42:00,47.7,26.8,29.15,West,279,0.0,0.0,44,0.00,,---,0.12,VWS V14.00,2013-03-07 02:42:00,
2013-03-06 18:47:00,47.3,26.5,29.15,West,279,0.0,0.0,44,0.00,,---,0.12,VWS V14.00,2013-03-07 02:47:00,
2013-03-06 18:53:00,47.1,26.9,29.15,West,279,0.0,0.0,45,0.00,,---,0.12,VWS V14.00,2013-03-07 02:53:00,
2013-03-06 19:00:00,46.8,26.6,29.15,West,279,0.0,0.0,45,0.00,,---,0.12,VWS V14.00,2013-03-07 03:00:00,
2013-03-06 19:05:00,46.8,26.6,29.15,West,279,0.0,0.0,45,0.00,,---,0.12,VWS V14.00,2013-03-07 03:05:00,
2013-03-06 19:10:00,46.6,26.9,29.15,West,279,0.0,0.0,46,0.00,,---,0.12,VWS V14.00,2013-03-07 03:10:00,
2013-03-06 19:16:00,46.4,27.3,29.15,West,279,0.0,0.0,47,0.00,,---,0.12,VWS V14.00,2013-03-07 03:16:00,
2013-03-06 19:21:00,46.2,27.1,29.15,West,279,0.0,0.0,47,0.00,,---,0.12,VWS V14.00,2013-03-07 03:21:00,
2013-03-06 19:27:00,46.0,27.5,29.15,West,279,0.0,0.0,48,0.00,,---,0.12,VWS V14.00,2013-03-07 03:27:00,
2013-03-06 19:33:00,45.9,27.3,29.15,West,279,0.0,0.0,48,0.00,,---,0.12,VWS V14.00,2013-03-07 03:33:00,
2013-03-06 19:38:00,45.9,27.3,29.15,West,279,0.0,0.0,48,0.00,,---,0.12,VWS V14.00,2013-03-07 03:38:00,
2013-03-06 19:45:00,45.5,27.5,29.15,West,279,0.0,0.0,49,0.00,,---,0.12,VWS V14.00,2013-03-07 03:45:00,
2013-03-06 19:50:00,45.3,27.3,29.15,West,279,0.0,0.0,49,0.00,,---,0.12,VWS V14.00,2013-03-07 03:50:00,
2013-03-06 19:55:00,45.3,27.3,29.15,West,279,0.0,0.0,49,0.00,,---,0.12,VWS V14.00,2013-03-07 03:55:00,
2013-03-06 20:00:00,45.1,27.1,29.15,West,279,0.0,0.0,49,0.00,,---,0.12,VWS V14.00,2013-03-07 04:00:00,
2013-03-06 20:06:00,45.1,27.6,29.15,West,279,0.0,0.0,50,0.00,,---,0.12,VWS V14.00,2013-03-07 04:06:00,
2013-03-06 20:11:00,45.0,27.5,29.15,West,279,0.0,0.0,50,0.00,,---,0.12,VWS V14.00,2013-03-07 04:11:00,
2013-03-06 20:16:00,45.0,27.5,29.15,West,279,0.0,0.0,50,0.00,,---,0.12,VWS V14.00,2013-03-07 04:16:00,
2013-03-06 20:22:00,44.8,27.8,29.15,West,279,0.0,0.0,51,0.00,,---,0.12,VWS V14.00,2013-03-07 04:22:00,
2013-03-06 20:28:00,44.6,27.6,29.15,West,279,0.0,0.0,51,0.00,,---,0.12,VWS V14.00,2013-03-07 04:28:00,
2013-03-06 20:38:00,44.2,27.7,29.15,West,279,0.0,0.0,52,0.00,,---,0.12,VWS V14.00,2013-03-07 04:38:00,
2013-03-06 20:44:00,44.1,27.6,29.15,West,279,0.0,0.0,52,0.00,,---,0.12,VWS V14.00,2013-03-07 04:44:00,
2013-03-06 20:49:00,43.9,27.9,29.15,West,279,0.0,0.0,53,0.00,,---,0.12,VWS V14.00,2013-03-07 04:49:00,
2013-03-06 20:54:00,43.9,27.9,29.15,West,279,0.0,0.0,53,0.00,,---,0.12,VWS V14.00,2013-03-07 04:54:00,
2013-03-06 21:00:00,43.7,28.2,29.15,West,279,0.0,0.0,54,0.00,,---,0.12,VWS V14.00,2013-03-07 05:00:00,
2013-03-06 21:02:00,43.7,28.2,29.15,West,279,0.0,0.0,54,0.00,,---,0.12,VWS V14.00,2013-03-07 05:02:00,
2013-03-06 21:05:00,43.7,28.2,29.15,West,279,0.0,0.0,54,0.00,,---,0.12,VWS V14.00,2013-03-07 05:05:00,
2013-03-06 21:08:00,43.5,28.0,29.15,West,279,0.0,0.0,54,0.00,,---,0.12,VWS V14.00,2013-03-07 05:08:00,
2013-03-06 21:13:00,43.5,28.4,29.15,West,279,0.0,0.0,55,0.00,,---,0.12,VWS V14.00,2013-03-07 05:13:00,
2013-03-06 21:19:00,43.3,28.3,29.15,West,279,0.0,0.0,55,0.00,,---,0.12,VWS V14.00,2013-03-07 05:19:00,
2013-03-06 21:29:00,43.3,29.1,29.15,West,279,0.0,0.0,57,0.00,,---,0.12,VWS V14.00,2013-03-07 05:29:00,
2013-03-06 21:35:00,43.3,29.1,29.15,West,279,0.0,0.0,57,0.00,,---,0.12,VWS V14.00,2013-03-07 05:35:00,
2013-03-06 21:40:00,43.3,29.6,29.15,West,279,0.0,0.0,58,0.00,,---,0.12,VWS V14.00,2013-03-07 05:40:00,
2013-03-06 21:45:00,43.2,29.4,29.15,West,279,0.0,0.0,58,0.00,,---,0.12,VWS V14.00,2013-03-07 05:45:00,
2013-03-06 21:51:00,42.8,29.1,29.15,West,279,0.0,0.0,58,0.00,,---,0.12,VWS V14.00,2013-03-07 05:51:00,
2013-03-06 21:56:00,42.6,29.3,29.15,West,279,0.0,0.0,59,0.00,,---,0.12,VWS V14.00,2013-03-07 05:56:00,
2013-03-06 22:01:00,42.6,29.3,29.15,West,279,0.0,0.0,59,0.00,,---,0.12,VWS V14.00,2013-03-07 06:01:00,
2013-03-06 22:06:00,42.6,29.7,29.15,West,279,0.0,0.0,60,0.00,,---,0.12,VWS V14.00,2013-03-07 06:06:00,
2013-03-06 22:12:00,42.6,29.7,29.15,West,279,0.0,0.0,60,0.00,,---,0.12,VWS V14.00,2013-03-07 06:12:00,
2013-03-06 22:18:00,42.6,30.1,29.15,West,279,0.0,0.0,61,0.00,,---,0.12,VWS V14.00,2013-03-07 06:18:00,
2013-03-06 22:23:00,42.4,30.0,29.15,West,279,0.0,0.0,61,0.00,,---,0.12,VWS V14.00,2013-03-07 06:23:00,
2013-03-06 22:29:00,42.1,29.6,29.15,West,279,0.0,0.0,61,0.00,,---,0.12,VWS V14.00,2013-03-07 06:29:00,
2013-03-06 22:34:00,41.9,29.5,29.15,West,279,0.0,0.0,61,0.00,,---,0.12,VWS V14.00,2013-03-07 06:34:00,
2013-03-06 22:39:00,41.7,29.7,29.15,West,279,0.0,0.0,62,0.00,,---,0.12,VWS V14.00,2013-03-07 06:39:00,
2013-03-06 22:44:00,41.7,29.7,29.12,West,279,0.0,0.0,62,0.00,,---,0.12,VWS V14.00,2013-03-07 06:44:00,
2013-03-06 22:50:00,41.5,29.9,29.12,West,279,0.0,0.0,63,0.00,,---,0.12,VWS V14.00,2013-03-07 06:50:00,
2013-03-06 22:55:00,41.5,29.9,29.12,West,279,0.0,0.0,63,0.00,,---,0.00,VWS V14.00,2013-03-07 06:55:00,
2013-03-06 23:00:00,41.5,29.9,29.12,West,279,0.0,0.0,63,0.00,,---,0.00,VWS V14.00,2013-03-07 07:00:00,
2013-03-06 23:05:00,41.5,30.3,29.12,West,279,0.0,0.0,64,0.00,,---,0.00,VWS V14.00,2013-03-07 07:05:00,
2013-03-06 23:11:00,41.5,30.3,29.12,West,279,0.0,0.0,64,0.00,,---,0.00,VWS V14.00,2013-03-07 07:11:00,
2013-03-06 23:17:00,41.4,30.5,29.12,West,279,0.0,0.0,65,0.00,,---,0.00,VWS V14.00,2013-03-07 07:17:00,
2013-03-06 23:22:00,41.4,30.5,29.12,West,279,0.0,0.0,65,0.00,,---,0.00,VWS V14.00,2013-03-07 07:22:00,
2013-03-06 23:27:00,41.4,30.9,29.12,West,279,0.0,0.0,66,0.00,,---,0.00,VWS V14.00,2013-03-07 07:27:00,
2013-03-06 23:32:00,41.4,30.9,29.12,West,279,0.0,0.0,66,0.00,,---,0.00,VWS V14.00,2013-03-07 07:32:00,
2013-03-06 23:38:00,41.4,31.2,29.12,West,279,0.0,0.0,67,0.00,,---,0.00,VWS V14.00,2013-03-07 07:38:00,
2013-03-06 23:43:00,41.4,31.2,29.12,West,279,0.0,0.0,67,0.00,,---,0.00,VWS V14.00,2013-03-07 07:43:00,
2013-03-06 23:48:00,41.4,31.6,29.12,West,279,0.0,0.0,68,0.00,,---,0.00,VWS V14.00,2013-03-07 07:48:00,
2013-03-06 23:53:00,41.4,31.6,29.12,West,279,0.0,0.0,68,0.00,,---,0.00,VWS V14.00,2013-03-07 07:53:00,
2013-03-06 23:59:00,41.4,31.6,29.12,West,279,0.0,0.0,68,0.00,,---,0.00,VWS V14.00,2013-03-07 07:59:00,